Skip Page Navigation
NASA JPL Caltech
NASA Logo - Jet Propulsion Laboratory + View the NASA Portal
+ Center for Near-Earth Object Studies
JPL Home Earth Solar System Stars & Galaxies Technology
JPL Solar System Dynamics
BODIES ORBITS EPHEMERIDES TOOLS PHYSICAL DATA DISCOVERY FAQ SITE MAP
JPL Small-Body Database Browser
Search: [ help ]  
79350 (1996 YW)
Classification: Main-belt Asteroid          SPK-ID: 2079350
Ephemeris | Orbit Diagram | Orbital Elements | Mission Design | Physical Parameters | Discovery Circumstances ]

[ show orbit diagram ]
Orbital Elements at Epoch 2459000.5 (2020-May-31.0) TDB
Reference: JPL 21 (heliocentric ecliptic J2000)
 Element Value Uncertainty (1-sigma)   Units 
e .09105204077171414 4.0044e-08  
a 2.158004813230245 5.4399e-09 au
q 1.961514070990449 8.5604e-08 au
i 4.1668021010519 4.3816e-06 deg
node 72.16372396700002 4.3097e-05 deg
peri 2.211312634433727 4.6696e-05 deg
M 166.0261537258417 1.7639e-05 deg
tp 2458466.487962964457
(2018-Dec-13.98796296)
5.6431e-05 TDB
period 1157.915960940995
3.17
4.3783e-06
1.199e-08
d
yr
n .3109033920798893 1.1756e-09 deg/d
Q 2.35449555547004 5.9352e-09 au
  Orbit Determination Parameters
   # obs. used (total)      1384  
   data-arc span      8580 days (23.49 yr)  
   first obs. used      1996-12-20  
   last obs. used      2020-06-17  
   planetary ephem.      DE431  
   SB-pert. ephem.      SB431-N16  
   condition code      0  
   norm. resid. RMS      .4796  
   source      ORB  
   producer      Otto Matic  
   solution date      2020-Jun-24 00:02:48  

Additional Information
 Earth MOID = .976433 au 
 Jupiter MOID = 2.82482 au 
 T_jup = 3.690 
[ show covariance matrix ]

Ephemeris | Orbit Diagram | Orbital Elements | Mission Design | Physical Parameters | Discovery Circumstances ]

Physical Parameter Table
Parameter Symbol Value Units Sigma Reference Notes
absolute magnitude H 15.3   n/a MPO359299  
diameter diameter 2.278 km 0.331 urn:nasa:pds:neowise_diameters_albedos::2.0[mainbelt] (http://adsabs.harvard.edu/abs/2011ApJ...741...68M)  
geometric albedo albedo 0.283   0.093 urn:nasa:pds:neowise_diameters_albedos::2.0[mainbelt] (http://adsabs.harvard.edu/abs/2011ApJ...741...68M)  

79350 (1996 YW)          Discovered 1996-Dec-20 by Kobayashi, T. at Oizumi
Reference: 20040504/Numbers.arcLast Updated: 2004-07-16

Alternate Designations
 1996 YW = 1999 XO66 
Ephemeris | Orbit Diagram | Orbital Elements | Mission Design | Physical Parameters | Discovery Circumstances ]
ABOUT SSD CREDITS/AWARDS PRIVACY/COPYRIGHT GLOSSARY LINKS
FirstGov 2020-Sep-22 15:54 UT
(server date/time)  
NASA Home Page
Site Manager:   Ryan S. Park
Webmaster  Alan B. Chamberlin